Time,TemperatureF,DewpointF,PressureIn,WindDirection,WindDirectionDegrees,WindSpeedMPH,WindSpeedGustMPH,Humidity,HourlyPrecipIn,Conditions,Clouds,dailyrainin,SoftwareType,DateUTC
2013-08-27 00:01:00,80.5,70.2,30.09,SW,225,4.0,4.9,71,0.00,,,0.00,WUHU216HW,2013-08-27 05:01:00,
2013-08-27 00:06:00,80.3,70.0,30.09,SSW,203,3.8,5.4,71,0.00,,,0.00,WUHU216HW,2013-08-27 05:06:00,
2013-08-27 00:11:00,80.3,70.0,30.09,SW,225,2.9,5.4,71,0.00,,,0.00,WUHU216HW,2013-08-27 05:11:00,
2013-08-27 00:16:00,79.9,70.1,30.09,SSW,203,3.4,4.7,72,0.00,,,0.00,WUHU216HW,2013-08-27 05:16:00,
2013-08-27 00:21:00,79.9,70.1,30.09,SSW,203,3.1,6.3,72,0.00,,,0.00,WUHU216HW,2013-08-27 05:21:00,
2013-08-27 00:26:00,79.7,69.9,30.09,SSW,203,3.4,6.5,72,0.00,,,0.00,WUHU216HW,2013-08-27 05:26:00,
2013-08-27 00:31:00,79.6,70.1,30.09,WSW,248,3.8,6.5,73,0.00,,,0.00,WUHU216HW,2013-08-27 05:31:00,
2013-08-27 00:36:00,79.6,70.1,30.09,West,270,2.7,3.8,73,0.00,,,0.00,WUHU216HW,2013-08-27 05:36:00,
2013-08-27 00:41:00,79.4,69.9,30.09,South,180,2.9,8.1,73,0.00,,,0.00,WUHU216HW,2013-08-27 05:41:00,
2013-08-27 00:46:00,79.4,69.9,30.09,SW,225,6.5,8.1,73,0.00,,,0.00,WUHU216HW,2013-08-27 05:46:00,
2013-08-27 00:51:00,79.2,70.2,30.09,SW,225,3.8,6.5,74,0.00,,,0.00,WUHU216HW,2013-08-27 05:51:00,
2013-08-27 00:56:00,79.0,70.0,30.08,SSW,203,5.4,5.4,74,0.00,,,0.00,WUHU216HW,2013-08-27 05:56:00,
2013-08-27 01:01:00,79.0,70.0,30.08,SW,225,5.1,5.4,74,0.00,,,0.00,WUHU216HW,2013-08-27 06:01:00,
2013-08-27 01:06:00,78.8,69.9,30.08,SSW,203,6.5,6.5,74,0.00,,,0.00,WUHU216HW,2013-08-27 06:06:00,
2013-08-27 01:11:00,78.8,69.9,30.08,SW,225,2.2,6.5,74,0.00,,,0.00,WUHU216HW,2013-08-27 06:11:00,
2013-08-27 01:16:00,78.8,69.9,30.08,South,180,4.5,4.7,74,0.00,,,0.00,WUHU216HW,2013-08-27 06:16:00,
2013-08-27 01:21:00,78.7,69.7,30.08,SW,225,5.1,5.4,74,0.00,,,0.00,WUHU216HW,2013-08-27 06:21:00,
2013-08-27 01:26:00,78.7,70.0,30.08,SSW,203,3.8,5.4,75,0.00,,,0.00,WUHU216HW,2013-08-27 06:26:00,
2013-08-27 01:31:00,78.7,69.7,30.08,SW,225,2.9,5.1,74,0.00,,,0.00,WUHU216HW,2013-08-27 06:31:00,
2013-08-27 01:36:00,78.5,69.8,30.08,WSW,248,2.5,5.4,75,0.00,,,0.00,WUHU216HW,2013-08-27 06:36:00,
2013-08-27 01:41:00,78.5,69.8,30.08,SW,225,3.4,7.2,75,0.00,,,0.00,WUHU216HW,2013-08-27 06:41:00,
2013-08-27 01:46:00,78.3,69.7,30.08,SW,225,2.5,7.2,75,0.00,,,0.00,WUHU216HW,2013-08-27 06:46:00,
2013-08-27 01:51:00,78.3,69.7,30.08,SSW,203,3.4,5.4,75,0.00,,,0.00,WUHU216HW,2013-08-27 06:51:00,
2013-08-27 01:56:00,78.1,69.5,30.08,South,180,2.2,5.4,75,0.00,,,0.00,WUHU216HW,2013-08-27 06:56:00,
2013-08-27 02:01:00,78.1,69.5,30.08,SSW,203,3.4,3.6,75,0.00,,,0.00,WUHU216HW,2013-08-27 07:01:00,
2013-08-27 02:06:00,78.1,69.5,30.08,SW,225,1.8,3.6,75,0.00,,,0.00,WUHU216HW,2013-08-27 07:06:00,
2013-08-27 02:11:00,78.1,69.5,30.08,SSW,203,1.8,3.6,75,0.00,,,0.00,WUHU216HW,2013-08-27 07:11:00,
2013-08-27 02:16:00,77.9,69.3,30.08,SSE,158,2.2,2.2,75,0.00,,,0.00,WUHU216HW,2013-08-27 07:16:00,
2013-08-27 02:21:00,77.9,69.3,30.08,SSW,203,1.1,2.2,75,0.00,,,0.00,WUHU216HW,2013-08-27 07:21:00,
2013-08-27 02:26:00,77.6,69.4,30.08,NW,315,3.1,3.1,76,0.00,,,0.00,WUHU216HW,2013-08-27 07:26:00,
2013-08-27 02:30:00,77.2,69.4,30.08,SSE,158,2.5,4.7,77,0.00,,,0.00,WUHU216HW,2013-08-27 07:30:00,
2013-08-27 02:35:00,77.0,69.2,30.08,SW,225,2.0,4.7,77,0.00,,,0.00,WUHU216HW,2013-08-27 07:35:00,
2013-08-27 02:40:00,77.0,69.2,30.08,SSW,203,1.6,2.5,77,0.00,,,0.00,WUHU216HW,2013-08-27 07:40:00,
2013-08-27 02:45:00,77.0,69.2,30.08,South,180,1.8,2.0,77,0.00,,,0.00,WUHU216HW,2013-08-27 07:45:00,
2013-08-27 02:50:00,76.9,69.1,30.08,SW,225,3.8,3.8,77,0.00,,,0.00,WUHU216HW,2013-08-27 07:50:00,
2013-08-27 02:55:00,76.7,69.3,30.08,SW,225,3.4,4.9,78,0.00,,,0.00,WUHU216HW,2013-08-27 07:55:00,
2013-08-27 03:00:00,76.5,69.1,30.08,WSW,248,2.9,4.9,78,0.00,,,0.00,WUHU216HW,2013-08-27 08:00:00,
2013-08-27 03:05:00,76.3,69.4,30.07,SW,225,4.5,4.5,79,0.00,,,0.00,WUHU216HW,2013-08-27 08:05:00,
2013-08-27 03:10:00,76.1,69.2,30.08,South,180,2.0,4.5,79,0.00,,,0.00,WUHU216HW,2013-08-27 08:10:00,
2013-08-27 03:15:00,76.0,69.0,30.08,SSW,203,2.0,4.0,79,0.00,,,0.00,WUHU216HW,2013-08-27 08:15:00,
2013-08-27 03:20:00,76.0,69.0,30.08,SW,225,2.9,4.0,79,0.00,,,0.00,WUHU216HW,2013-08-27 08:20:00,
2013-08-27 03:25:00,76.0,69.0,30.07,SSW,203,2.5,5.1,79,0.00,,,0.00,WUHU216HW,2013-08-27 08:25:00,
2013-08-27 03:30:00,76.0,69.0,30.07,SW,225,2.7,5.1,79,0.00,,,0.00,WUHU216HW,2013-08-27 08:30:00,
2013-08-27 03:35:00,75.8,69.2,30.07,SSW,203,3.4,4.7,80,0.00,,,0.00,WUHU216HW,2013-08-27 08:35:00,
2013-08-27 03:40:00,75.8,69.2,30.07,SSW,203,5.6,5.6,80,0.00,,,0.00,WUHU216HW,2013-08-27 08:40:00,
2013-08-27 03:45:00,75.8,69.2,30.07,SSW,203,3.4,5.6,80,0.00,,,0.00,WUHU216HW,2013-08-27 08:45:00,
2013-08-27 03:50:00,75.8,68.9,30.07,SW,225,4.0,5.4,79,0.00,,,0.00,WUHU216HW,2013-08-27 08:50:00,
2013-08-27 03:55:00,75.6,69.1,30.07,SW,225,4.3,5.4,80,0.00,,,0.00,WUHU216HW,2013-08-27 08:55:00,
2013-08-27 04:00:00,75.6,69.1,30.07,SSW,203,3.4,5.4,80,0.00,,,0.00,WUHU216HW,2013-08-27 09:00:00,
2013-08-27 04:05:00,75.4,69.0,30.07,SSW,203,2.9,5.1,80,0.00,,,0.00,WUHU216HW,2013-08-27 09:05:00,
2013-08-27 04:10:00,75.4,69.3,30.07,SE,135,4.9,5.1,81,0.00,,,0.00,WUHU216HW,2013-08-27 09:10:00,
2013-08-27 04:15:00,75.2,69.1,30.07,SSW,203,2.5,5.4,81,0.00,,,0.00,WUHU216HW,2013-08-27 09:15:00,
2013-08-27 04:20:00,75.2,69.1,30.07,SW,225,4.3,5.4,81,0.00,,,0.00,WUHU216HW,2013-08-27 09:20:00,
2013-08-27 04:25:00,75.2,69.1,30.07,SSW,203,4.0,4.7,81,0.00,,,0.00,WUHU216HW,2013-08-27 09:25:00,
2013-08-27 04:30:00,75.1,69.0,30.07,South,180,4.7,5.4,81,0.00,,,0.00,WUHU216HW,2013-08-27 09:30:00,
2013-08-27 04:35:00,75.1,69.0,30.07,SW,225,3.6,7.8,81,0.00,,,0.00,WUHU216HW,2013-08-27 09:35:00,
2013-08-27 04:40:00,74.9,68.8,30.07,SSW,203,2.9,7.8,81,0.00,,,0.00,WUHU216HW,2013-08-27 09:40:00,
2013-08-27 04:45:00,74.9,68.8,30.07,SW,225,3.1,6.3,81,0.00,,,0.00,WUHU216HW,2013-08-27 09:45:00,
2013-08-27 04:50:00,74.9,68.8,30.07,SW,225,5.1,5.1,81,0.00,,,0.00,WUHU216HW,2013-08-27 09:50:00,
2013-08-27 04:55:00,74.7,69.0,30.07,SW,225,2.7,5.8,82,0.00,,,0.00,WUHU216HW,2013-08-27 09:55:00,
2013-08-27 05:00:00,74.7,68.6,30.07,SW,225,3.1,5.8,81,0.00,,,0.00,WUHU216HW,2013-08-27 10:00:00,
2013-08-27 05:05:00,74.5,68.8,30.07,SSW,203,3.1,5.6,82,0.00,,,0.00,WUHU216HW,2013-08-27 10:05:00,
2013-08-27 05:10:00,74.5,68.8,30.07,WSW,248,5.8,5.8,82,0.00,,,0.00,WUHU216HW,2013-08-27 10:10:00,
2013-08-27 05:15:00,74.3,68.6,30.07,NW,315,3.1,6.5,82,0.00,,,0.00,WUHU216HW,2013-08-27 10:15:00,
2013-08-27 05:20:00,74.2,68.7,30.07,SSW,203,5.1,6.5,83,0.00,,,0.00,WUHU216HW,2013-08-27 10:20:00,
2013-08-27 05:25:00,74.2,68.7,30.07,SSW,203,4.7,6.3,83,0.00,,,0.00,WUHU216HW,2013-08-27 10:25:00,
2013-08-27 05:30:00,74.0,68.5,30.07,SW,225,6.5,8.7,83,0.00,,,0.00,WUHU216HW,2013-08-27 10:30:00,
2013-08-27 05:35:00,74.0,68.5,30.07,SW,225,5.6,8.7,83,0.00,,,0.00,WUHU216HW,2013-08-27 10:35:00,
2013-08-27 05:40:00,73.8,68.3,30.07,SSW,203,6.3,6.3,83,0.00,,,0.00,WUHU216HW,2013-08-27 10:40:00,
2013-08-27 05:45:00,73.8,68.7,30.08,SSW,203,5.4,7.4,84,0.00,,,0.00,WUHU216HW,2013-08-27 10:45:00,
2013-08-27 05:50:00,73.6,68.1,30.08,SW,225,2.9,7.4,83,0.00,,,0.00,WUHU216HW,2013-08-27 10:50:00,
2013-08-27 05:55:00,73.6,68.5,30.08,SSW,203,5.4,6.0,84,0.00,,,0.00,WUHU216HW,2013-08-27 10:55:00,
2013-08-27 06:00:00,73.4,68.3,30.08,SSW,203,5.4,6.7,84,0.00,,,0.00,WUHU216HW,2013-08-27 11:00:00,
2013-08-27 06:05:00,73.3,68.1,30.08,SW,225,2.9,6.7,84,0.00,,,0.00,WUHU216HW,2013-08-27 11:05:00,
2013-08-27 06:10:00,73.3,68.1,30.08,SW,225,6.3,6.3,84,0.00,,,0.00,WUHU216HW,2013-08-27 11:10:00,
2013-08-27 06:15:00,73.1,68.0,30.08,SW,225,5.1,6.3,84,0.00,,,0.00,WUHU216HW,2013-08-27 11:15:00,
2013-08-27 06:20:00,73.1,68.0,30.08,SW,225,5.1,5.1,84,0.00,,,0.00,WUHU216HW,2013-08-27 11:20:00,
2013-08-27 06:25:00,73.1,68.3,30.08,SW,225,3.6,5.1,85,0.00,,,0.00,WUHU216HW,2013-08-27 11:25:00,
2013-08-27 06:30:00,72.9,67.8,30.08,SW,225,4.7,4.9,84,0.00,,,0.00,WUHU216HW,2013-08-27 11:30:00,
2013-08-27 06:35:00,72.9,67.8,30.08,SSW,203,3.4,4.7,84,0.00,,,0.00,WUHU216HW,2013-08-27 11:35:00,
2013-08-27 06:40:00,72.9,67.8,30.08,SW,225,2.9,4.7,84,0.00,,,0.00,WUHU216HW,2013-08-27 11:40:00,
2013-08-27 06:45:00,72.7,67.6,30.08,WSW,248,4.9,5.1,84,0.00,,,0.00,WUHU216HW,2013-08-27 11:45:00,
2013-08-27 06:50:00,72.7,67.6,30.08,SSW,203,2.5,5.6,84,0.00,,,0.00,WUHU216HW,2013-08-27 11:50:00,
2013-08-27 06:55:00,72.5,67.4,30.08,SSW,203,2.0,5.6,84,0.00,,,0.00,WUHU216HW,2013-08-27 11:55:00,
2013-08-27 07:00:00,72.5,67.4,30.08,SW,225,4.7,5.4,84,0.00,,,0.00,WUHU216HW,2013-08-27 12:00:00,
2013-08-27 07:05:00,72.7,67.6,30.09,SW,225,6.9,6.9,84,0.00,,,0.00,WUHU216HW,2013-08-27 12:05:00,
2013-08-27 07:17:00,72.7,67.6,30.09,SW,225,4.7,4.7,84,0.00,,,0.00,WUHU216HW,2013-08-27 12:17:00,
2013-08-27 07:42:00,73.3,68.1,30.09,SSW,203,4.9,4.9,84,0.00,,,0.00,WUHU216HW,2013-08-27 12:42:00,
2013-08-27 07:50:00,74.0,68.5,30.09,SSW,203,3.4,3.4,83,0.00,,,0.00,WUHU216HW,2013-08-27 12:50:00,
2013-08-27 07:55:00,74.0,68.5,30.09,SSW,203,5.6,5.8,83,0.00,,,0.00,WUHU216HW,2013-08-27 12:55:00,
2013-08-27 08:00:00,74.2,68.7,30.09,SW,225,5.8,5.8,83,0.00,,,0.00,WUHU216HW,2013-08-27 13:00:00,
2013-08-27 08:05:00,74.5,68.8,30.09,SW,225,4.0,7.2,82,0.00,,,0.00,WUHU216HW,2013-08-27 13:05:00,
2013-08-27 08:10:00,74.5,68.4,30.09,SSW,203,4.9,8.7,81,0.00,,,0.00,WUHU216HW,2013-08-27 13:10:00,
2013-08-27 08:15:00,74.7,68.6,30.09,SW,225,3.4,8.7,81,0.00,,,0.00,WUHU216HW,2013-08-27 13:15:00,
2013-08-27 08:20:00,75.2,68.8,30.09,SW,225,4.0,4.9,80,0.00,,,0.00,WUHU216HW,2013-08-27 13:20:00,
2013-08-27 08:25:00,75.6,68.7,30.09,SSW,203,4.5,8.9,79,0.00,,,0.00,WUHU216HW,2013-08-27 13:25:00,
2013-08-27 08:30:00,75.8,68.9,30.09,SSW,203,4.7,8.9,79,0.00,,,0.00,WUHU216HW,2013-08-27 13:30:00,
2013-08-27 08:35:00,76.1,68.8,30.09,South,180,4.0,7.6,78,0.00,,,0.00,WUHU216HW,2013-08-27 13:35:00,
2013-08-27 08:40:00,76.3,68.9,30.09,SSW,203,4.3,7.6,78,0.00,,,0.00,WUHU216HW,2013-08-27 13:40:00,
2013-08-27 08:45:00,76.7,69.0,30.09,WSW,248,9.2,9.2,77,0.00,,,0.00,WUHU216HW,2013-08-27 13:45:00,
2013-08-27 08:50:00,77.0,68.5,30.09,SSW,203,5.4,9.8,75,0.00,,,0.00,WUHU216HW,2013-08-27 13:50:00,
2013-08-27 08:55:00,77.4,68.9,30.09,SSW,203,4.5,9.8,75,0.00,,,0.00,WUHU216HW,2013-08-27 13:55:00,
2013-08-27 09:00:00,77.9,68.9,30.10,SW,225,5.4,7.6,74,0.00,,,0.00,WUHU216HW,2013-08-27 14:00:00,
2013-08-27 09:05:00,78.1,68.3,30.09,SW,225,7.2,10.5,72,0.00,,,0.00,WUHU216HW,2013-08-27 14:05:00,
2013-08-27 09:10:00,78.5,68.7,30.09,West,270,4.9,10.5,72,0.00,,,0.00,WUHU216HW,2013-08-27 14:10:00,
2013-08-27 09:15:00,78.8,68.6,30.09,West,270,4.7,10.3,71,0.00,,,0.00,WUHU216HW,2013-08-27 14:15:00,
2013-08-27 09:20:00,79.4,68.8,30.09,SW,225,5.8,10.3,70,0.00,,,0.00,WUHU216HW,2013-08-27 14:20:00,
2013-08-27 09:25:00,79.9,69.3,30.09,SW,225,4.3,9.4,70,0.00,,,0.00,WUHU216HW,2013-08-27 14:25:00,
2013-08-27 09:30:00,80.3,68.8,30.09,West,270,7.8,7.8,68,0.00,,,0.00,WUHU216HW,2013-08-27 14:30:00,
2013-08-27 09:35:00,80.6,69.1,30.09,SW,225,1.8,8.9,68,0.00,,,0.00,WUHU216HW,2013-08-27 14:35:00,
2013-08-27 09:40:00,81.0,69.0,30.09,SW,225,9.6,9.6,67,0.00,,,0.00,WUHU216HW,2013-08-27 14:40:00,
2013-08-27 09:45:00,81.7,69.2,30.09,SW,225,7.6,9.6,66,0.00,,,0.00,WUHU216HW,2013-08-27 14:45:00,
2013-08-27 09:50:00,82.1,69.5,30.09,SW,225,6.5,9.6,66,0.00,,,0.00,WUHU216HW,2013-08-27 14:50:00,
2013-08-27 09:55:00,82.3,69.2,30.09,SW,225,1.8,7.6,65,0.00,,,0.00,WUHU216HW,2013-08-27 14:55:00,
2013-08-27 10:00:00,82.6,70.0,30.09,SE,135,5.4,6.5,66,0.00,,,0.00,WUHU216HW,2013-08-27 15:00:00,
2013-08-27 10:05:00,83.2,69.2,30.09,WSW,248,5.8,7.4,63,0.00,,,0.00,WUHU216HW,2013-08-27 15:05:00,
2013-08-27 10:10:00,83.3,69.8,30.09,South,180,1.6,7.4,64,0.00,,,0.00,WUHU216HW,2013-08-27 15:10:00,
2013-08-27 10:15:00,83.7,69.8,30.09,West,270,9.2,9.2,63,0.00,,,0.00,WUHU216HW,2013-08-27 15:15:00,
2013-08-27 10:20:00,83.9,69.0,30.09,SW,225,8.1,11.9,61,0.00,,,0.00,WUHU216HW,2013-08-27 15:20:00,
2013-08-27 10:25:00,84.1,69.2,30.09,WSW,248,8.5,11.9,61,0.00,,,0.00,WUHU216HW,2013-08-27 15:25:00,
2013-08-27 10:30:00,84.4,69.6,30.09,WSW,248,4.0,8.5,61,0.00,,,0.00,WUHU216HW,2013-08-27 15:30:00,
2013-08-27 10:35:00,84.6,69.3,30.09,SW,225,10.7,10.7,60,0.00,,,0.00,WUHU216HW,2013-08-27 15:35:00,
2013-08-27 10:40:00,85.0,69.0,30.09,SSW,203,8.5,10.7,59,0.00,,,0.00,WUHU216HW,2013-08-27 15:40:00,
2013-08-27 10:45:00,85.1,69.2,30.09,SSW,203,9.2,10.7,59,0.00,,,0.00,WUHU216HW,2013-08-27 15:45:00,
2013-08-27 10:50:00,85.5,69.0,30.09,SW,225,4.7,9.2,58,0.00,,,0.00,WUHU216HW,2013-08-27 15:50:00,
2013-08-27 10:55:00,85.9,68.9,30.09,West,270,7.8,9.2,57,0.00,,,0.00,WUHU216HW,2013-08-27 15:55:00,
2013-08-27 11:00:00,86.2,69.7,30.08,SW,225,8.1,8.1,58,0.00,,,0.00,WUHU216HW,2013-08-27 16:00:00,
2013-08-27 11:05:00,86.6,68.5,30.09,SW,225,4.7,11.6,55,0.00,,,0.00,WUHU216HW,2013-08-27 16:05:00,
2013-08-27 11:10:00,87.1,70.0,30.08,SSW,203,5.4,11.6,57,0.00,,,0.00,WUHU216HW,2013-08-27 16:10:00,
2013-08-27 11:15:00,87.5,68.8,30.08,WSW,248,9.2,13.2,54,0.00,,,0.00,WUHU216HW,2013-08-27 16:15:00,
2013-08-27 11:20:00,87.7,68.9,30.08,SW,225,9.6,13.2,54,0.00,,,0.00,WUHU216HW,2013-08-27 16:20:00,
2013-08-27 11:25:00,88.0,68.8,30.08,SE,135,4.3,11.2,53,0.00,,,0.00,WUHU216HW,2013-08-27 16:25:00,
2013-08-27 11:30:00,88.4,69.0,30.08,SW,225,11.6,11.6,53,0.00,,,0.00,WUHU216HW,2013-08-27 16:30:00,
2013-08-27 11:35:00,88.6,69.2,30.08,SW,225,11.9,16.1,53,0.00,,,0.00,WUHU216HW,2013-08-27 16:35:00,
2013-08-27 11:40:00,88.6,69.2,30.08,WSW,248,8.9,16.1,53,0.00,,,0.00,WUHU216HW,2013-08-27 16:40:00,
2013-08-27 11:45:00,89.1,69.2,30.08,SW,225,4.0,12.5,52,0.00,,,0.00,WUHU216HW,2013-08-27 16:45:00,
2013-08-27 11:50:00,89.6,69.1,30.08,SW,225,11.9,11.9,51,0.00,,,0.00,WUHU216HW,2013-08-27 16:50:00,
2013-08-27 11:55:00,89.6,68.6,30.08,SW,225,13.6,14.3,50,0.00,,,0.00,WUHU216HW,2013-08-27 16:55:00,
2013-08-27 12:00:00,90.2,70.1,30.08,SSW,203,4.5,14.3,52,0.00,,,0.00,WUHU216HW,2013-08-27 17:00:00,
2013-08-27 12:05:00,90.5,69.9,30.08,SW,225,8.9,13.6,51,0.00,,,0.00,WUHU216HW,2013-08-27 17:05:00,
2013-08-27 12:17:00,91.6,69.0,30.08,SW,225,12.8,12.8,48,0.00,,,0.00,WUHU216HW,2013-08-27 17:17:00,
2013-08-27 12:22:00,91.3,69.4,30.07,SW,225,11.4,12.8,49,0.00,,,0.00,WUHU216HW,2013-08-27 17:22:00,
2013-08-27 12:27:00,91.3,69.4,30.07,SW,225,6.9,11.4,49,0.00,,,0.00,WUHU216HW,2013-08-27 17:27:00,
2013-08-27 12:32:00,91.3,68.8,30.07,SW,225,8.3,11.4,48,0.00,,,0.00,WUHU216HW,2013-08-27 17:32:00,
2013-08-27 12:37:00,91.4,69.0,30.07,SW,225,9.4,9.4,48,0.00,,,0.00,WUHU216HW,2013-08-27 17:37:00,
2013-08-27 12:42:00,92.0,69.4,30.06,SSW,203,9.2,9.4,48,0.00,,,0.00,WUHU216HW,2013-08-27 17:42:00,
2013-08-27 12:47:00,92.7,70.0,30.06,SSW,203,6.5,9.4,48,0.00,,,0.00,WUHU216HW,2013-08-27 17:47:00,
2013-08-27 12:52:00,93.2,69.2,30.06,WNW,293,9.8,11.9,46,0.00,,,0.00,WUHU216HW,2013-08-27 17:52:00,
2013-08-27 12:57:00,93.6,69.0,30.06,WSW,248,6.5,12.1,45,0.00,,,0.00,WUHU216HW,2013-08-27 17:57:00,
2013-08-27 13:02:00,93.4,67.4,30.06,SW,225,13.2,13.2,43,0.00,,,0.00,WUHU216HW,2013-08-27 18:02:00,
2013-08-27 13:07:00,93.2,67.3,30.06,WSW,248,9.2,13.2,43,0.00,,,0.00,WUHU216HW,2013-08-27 18:07:00,
2013-08-27 13:12:00,93.1,67.2,30.06,SW,225,10.5,13.4,43,0.00,,,0.00,WUHU216HW,2013-08-27 18:12:00,
2013-08-27 13:17:00,93.2,68.0,30.05,South,180,6.9,13.4,44,0.00,,,0.00,WUHU216HW,2013-08-27 18:17:00,
2013-08-27 13:22:00,93.6,68.3,30.05,SW,225,9.2,13.2,44,0.00,,,0.00,WUHU216HW,2013-08-27 18:22:00,
2013-08-27 13:27:00,93.6,67.6,30.05,SSW,203,10.1,10.1,43,0.00,,,0.00,WUHU216HW,2013-08-27 18:27:00,
2013-08-27 13:32:00,94.0,68.0,30.05,SW,225,8.7,10.1,43,0.00,,,0.00,WUHU216HW,2013-08-27 18:32:00,
2013-08-27 13:37:00,94.0,68.0,30.05,SW,225,9.8,10.5,43,0.00,,,0.00,WUHU216HW,2013-08-27 18:37:00,
2013-08-27 13:42:00,94.7,68.0,30.05,West,270,10.5,10.5,42,0.00,,,0.00,WUHU216HW,2013-08-27 18:42:00,
2013-08-27 13:47:00,94.7,68.6,30.05,SW,225,4.7,10.5,43,0.00,,,0.00,WUHU216HW,2013-08-27 18:47:00,
2013-08-27 13:52:00,95.0,68.3,30.05,SW,225,11.0,11.0,42,0.00,,,0.00,WUHU216HW,2013-08-27 18:52:00,
2013-08-27 13:57:00,94.5,67.8,30.05,SW,225,9.2,11.0,42,0.00,,,0.00,WUHU216HW,2013-08-27 18:57:00,
2013-08-27 14:02:00,94.9,68.1,30.05,SSW,203,6.3,11.0,42,0.00,,,0.00,WUHU216HW,2013-08-27 19:02:00,
2013-08-27 14:07:00,95.2,68.5,30.04,West,270,4.7,9.2,42,0.00,,,0.00,WUHU216HW,2013-08-27 19:07:00,
2013-08-27 14:12:00,95.6,68.8,30.04,SW,225,6.5,6.5,42,0.00,,,0.00,WUHU216HW,2013-08-27 19:12:00,
2013-08-27 14:17:00,95.9,68.4,30.04,WSW,248,9.4,11.2,41,0.00,,,0.00,WUHU216HW,2013-08-27 19:17:00,
2013-08-27 14:22:00,96.1,68.6,30.04,SW,225,13.0,13.0,41,0.00,,,0.00,WUHU216HW,2013-08-27 19:22:00,
2013-08-27 14:27:00,95.8,68.3,30.04,SSW,203,5.1,13.0,41,0.00,,,0.00,WUHU216HW,2013-08-27 19:27:00,
2013-08-27 14:32:00,96.1,68.6,30.04,SW,225,6.9,11.4,41,0.00,,,0.00,WUHU216HW,2013-08-27 19:32:00,
2013-08-27 14:37:00,96.3,68.8,30.04,SSW,203,7.4,11.4,41,0.00,,,0.00,WUHU216HW,2013-08-27 19:37:00,
2013-08-27 14:42:00,95.9,68.4,30.04,SSW,203,12.1,12.1,41,0.00,,,0.00,WUHU216HW,2013-08-27 19:42:00,
2013-08-27 14:47:00,96.3,68.1,30.03,WSW,248,8.1,12.1,40,0.00,,,0.00,WUHU216HW,2013-08-27 19:47:00,
2013-08-27 14:52:00,96.8,68.6,30.03,NW,315,3.8,8.3,40,0.00,,,0.00,WUHU216HW,2013-08-27 19:52:00,
2013-08-27 14:57:00,97.7,69.4,30.03,WSW,248,8.5,8.5,40,0.00,,,0.00,WUHU216HW,2013-08-27 19:57:00,
2013-08-27 15:02:00,97.6,68.4,30.03,SW,225,8.5,9.2,39,0.00,,,0.00,WUHU216HW,2013-08-27 20:02:00,
2013-08-27 15:07:00,97.4,69.0,30.03,West,270,5.1,10.1,40,0.00,,,0.00,WUHU216HW,2013-08-27 20:07:00,
2013-08-27 15:12:00,97.4,69.0,30.03,West,270,9.2,10.1,40,0.00,,,0.00,WUHU216HW,2013-08-27 20:12:00,
2013-08-27 15:17:00,97.7,68.6,30.03,SW,225,7.4,9.2,39,0.00,,,0.00,WUHU216HW,2013-08-27 20:17:00,
2013-08-27 15:22:00,97.7,68.6,30.03,SSW,203,7.6,9.2,39,0.00,,,0.00,WUHU216HW,2013-08-27 20:22:00,
2013-08-27 15:27:00,97.7,69.4,30.03,SW,225,4.7,8.5,40,0.00,,,0.00,WUHU216HW,2013-08-27 20:27:00,
2013-08-27 15:32:00,98.3,68.2,30.03,SW,225,7.6,8.5,38,0.00,,,0.00,WUHU216HW,2013-08-27 20:32:00,
2013-08-27 15:37:00,98.5,69.2,30.03,WNW,293,4.0,7.6,39,0.00,,,0.00,WUHU216HW,2013-08-27 20:37:00,
2013-08-27 15:42:00,99.0,67.2,30.03,SW,225,10.5,10.5,36,0.00,,,0.00,WUHU216HW,2013-08-27 20:42:00,
2013-08-27 15:47:00,99.0,68.9,30.03,WSW,248,7.8,10.5,38,0.00,,,0.00,WUHU216HW,2013-08-27 20:47:00,
2013-08-27 15:52:00,98.8,68.7,30.03,West,270,10.5,10.5,38,0.00,,,0.00,WUHU216HW,2013-08-27 20:52:00,
2013-08-27 15:57:00,98.5,66.7,30.03,SSW,203,9.8,10.7,36,0.00,,,0.00,WUHU216HW,2013-08-27 20:57:00,
2013-08-27 16:02:00,97.9,67.9,30.03,NNW,338,6.9,11.0,38,0.00,,,0.00,WUHU216HW,2013-08-27 21:02:00,
2013-08-27 16:07:00,98.3,68.2,30.02,SW,225,8.9,11.2,38,0.00,,,0.00,WUHU216HW,2013-08-27 21:07:00,
2013-08-27 16:12:00,98.3,67.4,30.02,WSW,248,5.4,11.2,37,0.00,,,0.00,WUHU216HW,2013-08-27 21:12:00,
2013-08-27 16:17:00,98.3,66.6,30.02,South,180,8.3,10.3,36,0.00,,,0.00,WUHU216HW,2013-08-27 21:17:00,
2013-08-27 16:22:00,98.3,66.6,30.02,SSW,203,12.3,13.0,36,0.00,,,0.00,WUHU216HW,2013-08-27 21:22:00,
2013-08-27 16:27:00,97.7,68.6,30.02,WNW,293,5.4,13.0,39,0.00,,,0.00,WUHU216HW,2013-08-27 21:27:00,
2013-08-27 16:32:00,98.6,68.6,30.02,WSW,248,12.1,12.3,38,0.00,,,0.00,WUHU216HW,2013-08-27 21:32:00,
2013-08-27 16:37:00,97.9,67.9,30.02,West,270,7.8,12.1,38,0.00,,,0.00,WUHU216HW,2013-08-27 21:37:00,
2013-08-27 16:42:00,97.9,67.9,30.02,SSW,203,5.4,10.5,38,0.00,,,0.00,WUHU216HW,2013-08-27 21:42:00,
2013-08-27 16:47:00,98.1,68.0,30.02,SW,225,10.3,10.5,38,0.00,,,0.00,WUHU216HW,2013-08-27 21:47:00,
2013-08-27 16:52:00,98.3,68.2,30.02,WSW,248,9.6,10.3,38,0.00,,,0.00,WUHU216HW,2013-08-27 21:52:00,
2013-08-27 16:57:00,98.6,68.6,30.02,SW,225,12.8,12.8,38,0.00,,,0.00,WUHU216HW,2013-08-27 21:57:00,
2013-08-27 17:02:00,98.3,68.2,30.01,SW,225,3.6,12.8,38,0.00,,,0.00,WUHU216HW,2013-08-27 22:02:00,
2013-08-27 17:07:00,97.7,68.6,30.02,SSW,203,6.3,8.1,39,0.00,,,0.00,WUHU216HW,2013-08-27 22:07:00,
2013-08-27 17:12:00,97.2,69.0,30.02,WSW,248,5.1,13.9,40,0.00,,,0.00,WUHU216HW,2013-08-27 22:12:00,
2013-08-27 17:17:00,97.6,68.4,30.02,SSW,203,5.4,13.9,39,0.00,,,0.00,WUHU216HW,2013-08-27 22:17:00,
2013-08-27 17:22:00,97.2,68.0,30.01,SW,225,9.4,10.3,39,0.00,,,0.00,WUHU216HW,2013-08-27 22:22:00,
2013-08-27 17:27:00,96.8,67.8,30.01,WSW,248,8.3,11.4,39,0.00,,,0.00,WUHU216HW,2013-08-27 22:27:00,
2013-08-27 17:32:00,97.0,68.8,30.01,WSW,248,5.4,11.4,40,0.00,,,0.00,WUHU216HW,2013-08-27 22:32:00,
2013-08-27 17:37:00,96.8,68.6,30.01,South,180,5.8,7.6,40,0.00,,,0.00,WUHU216HW,2013-08-27 22:37:00,
2013-08-27 17:42:00,97.9,69.6,30.01,SW,225,2.0,7.6,40,0.00,,,0.00,WUHU216HW,2013-08-27 22:42:00,
2013-08-27 17:47:00,97.2,68.0,30.01,WSW,248,8.5,9.6,39,0.00,,,0.00,WUHU216HW,2013-08-27 22:47:00,
2013-08-27 17:52:00,95.9,67.8,30.01,SSW,203,6.7,9.6,40,0.00,,,0.00,WUHU216HW,2013-08-27 22:52:00,
2013-08-27 17:57:00,94.3,67.6,30.01,SW,225,8.1,11.4,42,0.00,,,0.00,WUHU216HW,2013-08-27 22:57:00,
2013-08-27 18:02:00,93.8,67.8,30.01,SW,225,7.4,11.4,43,0.00,,,0.00,WUHU216HW,2013-08-27 23:02:00,
2013-08-27 18:07:00,93.6,67.6,30.01,SW,225,10.5,10.5,43,0.00,,,0.00,WUHU216HW,2013-08-27 23:07:00,
2013-08-27 18:12:00,93.4,67.4,30.01,SSW,203,6.0,10.5,43,0.00,,,0.00,WUHU216HW,2013-08-27 23:12:00,
2013-08-27 18:17:00,93.2,68.0,30.01,South,180,3.8,8.3,44,0.00,,,0.00,WUHU216HW,2013-08-27 23:17:00,
2013-08-27 18:22:00,93.1,67.2,30.01,SSW,203,2.5,7.6,43,0.00,,,0.00,WUHU216HW,2013-08-27 23:22:00,
2013-08-27 18:27:00,92.9,67.0,30.01,SW,225,5.4,7.6,43,0.00,,,0.00,WUHU216HW,2013-08-27 23:27:00,
2013-08-27 18:32:00,92.9,68.2,30.01,SSW,203,3.8,6.7,45,0.00,,,0.00,WUHU216HW,2013-08-27 23:32:00,
2013-08-27 18:37:00,92.5,68.0,30.01,SW,225,2.5,5.4,45,0.00,,,0.00,WUHU216HW,2013-08-27 23:37:00,
2013-08-27 18:42:00,92.3,68.4,30.01,SW,225,2.5,4.7,46,0.00,,,0.00,WUHU216HW,2013-08-27 23:42:00,
2013-08-27 18:47:00,92.0,68.1,30.01,WNW,293,6.0,6.0,46,0.00,,,0.00,WUHU216HW,2013-08-27 23:47:00,
2013-08-27 18:52:00,91.8,68.0,30.01,SSW,203,2.5,6.0,46,0.00,,,0.00,WUHU216HW,2013-08-27 23:52:00,
2013-08-27 18:57:00,91.4,67.6,30.01,SSW,203,3.4,3.8,46,0.00,,,0.00,WUHU216HW,2013-08-27 23:57:00,
2013-08-27 19:02:00,91.4,68.2,30.01,SSW,203,3.4,3.8,47,0.00,,,0.00,WUHU216HW,2013-08-28 00:02:00,
2013-08-27 19:07:00,91.1,68.0,30.01,SW,225,3.6,3.6,47,0.00,,,0.00,WUHU216HW,2013-08-28 00:07:00,
2013-08-27 19:12:00,90.7,68.2,30.01,SSW,203,4.7,4.7,48,0.00,,,0.00,WUHU216HW,2013-08-28 00:12:00,
2013-08-27 19:17:00,90.4,68.6,30.01,SW,225,3.1,4.7,49,0.00,,,0.00,WUHU216HW,2013-08-28 00:17:00,
2013-08-27 19:22:00,90.2,68.4,30.01,SW,225,2.9,4.7,49,0.00,,,0.00,WUHU216HW,2013-08-28 00:22:00,
2013-08-27 19:27:00,89.6,68.6,30.01,SSW,203,2.7,3.8,50,0.00,,,0.00,WUHU216HW,2013-08-28 00:27:00,
2013-08-27 19:32:00,89.1,68.7,30.01,SSE,158,2.5,3.8,51,0.00,,,0.00,WUHU216HW,2013-08-28 00:32:00,
2013-08-27 19:37:00,89.1,68.7,30.01,SSW,203,2.2,2.5,51,0.00,,,0.00,WUHU216HW,2013-08-28 00:37:00,
2013-08-27 19:42:00,88.4,68.5,30.01,SW,225,1.1,2.5,52,0.00,,,0.00,WUHU216HW,2013-08-28 00:42:00,
2013-08-27 19:47:00,87.8,68.0,30.01,SW,225,4.3,4.3,52,0.00,,,0.00,WUHU216HW,2013-08-28 00:47:00,
2013-08-27 19:52:00,87.7,67.9,30.02,SSW,203,2.2,4.3,52,0.00,,,0.00,WUHU216HW,2013-08-28 00:52:00,
2013-08-27 19:57:00,87.1,68.0,30.02,South,180,2.2,4.3,53,0.00,,,0.00,WUHU216HW,2013-08-28 00:57:00,
2013-08-27 20:02:00,86.8,67.6,30.02,SSE,158,2.5,2.5,53,0.00,,,0.00,WUHU216HW,2013-08-28 01:02:00,
2013-08-27 20:07:00,86.6,67.4,30.02,South,180,1.3,3.4,53,0.00,,,0.00,WUHU216HW,2013-08-28 01:07:00,
2013-08-27 20:12:00,86.2,67.1,30.02,SSE,158,2.7,3.4,53,0.00,,,0.00,WUHU216HW,2013-08-28 01:12:00,
2013-08-27 20:17:00,86.0,66.9,30.02,SSW,203,1.6,3.4,53,0.00,,,0.00,WUHU216HW,2013-08-28 01:17:00,
2013-08-27 20:22:00,85.7,66.6,30.02,SSW,203,1.8,3.4,53,0.00,,,0.00,WUHU216HW,2013-08-28 01:22:00,
2013-08-27 20:27:00,85.3,66.2,30.02,WSW,248,3.4,3.4,53,0.00,,,0.00,WUHU216HW,2013-08-28 01:27:00,
2013-08-27 20:32:00,85.0,66.4,30.02,WSW,248,2.2,3.4,54,0.00,,,0.00,WUHU216HW,2013-08-28 01:32:00,
2013-08-27 20:37:00,84.8,66.3,30.02,SW,225,2.5,3.4,54,0.00,,,0.00,WUHU216HW,2013-08-28 01:37:00,
2013-08-27 20:42:00,84.6,66.2,30.02,SW,225,3.1,3.1,54,0.00,,,0.00,WUHU216HW,2013-08-28 01:42:00,
2013-08-27 20:47:00,84.4,66.0,30.02,SSW,203,2.5,3.1,54,0.00,,,0.00,WUHU216HW,2013-08-28 01:47:00,
2013-08-27 20:52:00,84.1,65.6,30.02,SW,225,2.5,3.4,54,0.00,,,0.00,WUHU216HW,2013-08-28 01:52:00,
2013-08-27 20:57:00,83.7,65.3,30.03,SW,225,1.8,3.4,54,0.00,,,0.00,WUHU216HW,2013-08-28 01:57:00,
2013-08-27 21:02:00,83.5,65.1,30.03,SSW,203,4.5,4.5,54,0.00,,,0.00,WUHU216HW,2013-08-28 02:02:00,
2013-08-27 21:07:00,83.3,64.9,30.03,WSW,248,2.9,4.5,54,0.00,,,0.00,WUHU216HW,2013-08-28 02:07:00,
2013-08-27 21:12:00,83.2,65.3,30.03,South,180,2.5,4.5,55,0.00,,,0.00,WUHU216HW,2013-08-28 02:12:00,
2013-08-27 21:17:00,83.2,65.3,30.03,SW,225,2.5,3.6,55,0.00,,,0.00,WUHU216HW,2013-08-28 02:17:00,
2013-08-27 21:22:00,82.8,64.9,30.03,SW,225,2.5,3.6,55,0.00,,,0.00,WUHU216HW,2013-08-28 02:22:00,
2013-08-27 21:27:00,82.6,64.7,30.03,WSW,248,5.1,5.1,55,0.00,,,0.00,WUHU216HW,2013-08-28 02:27:00,
2013-08-27 21:32:00,82.4,64.5,30.03,SSW,203,1.8,5.1,55,0.00,,,0.00,WUHU216HW,2013-08-28 02:32:00,
2013-08-27 21:37:00,82.1,64.7,30.03,SW,225,5.1,5.1,56,0.00,,,0.00,WUHU216HW,2013-08-28 02:37:00,
2013-08-27 21:42:00,82.1,64.7,30.03,WSW,248,6.5,6.5,56,0.00,,,0.00,WUHU216HW,2013-08-28 02:42:00,
2013-08-27 21:47:00,82.1,64.7,30.03,SSW,203,3.1,6.5,56,0.00,,,0.00,WUHU216HW,2013-08-28 02:47:00,
2013-08-27 21:52:00,81.7,64.5,30.03,SSW,203,7.8,7.8,56,0.00,,,0.00,WUHU216HW,2013-08-28 02:52:00,
2013-08-27 21:57:00,81.7,64.5,30.03,SW,225,7.2,7.8,56,0.00,,,0.00,WUHU216HW,2013-08-28 02:57:00,
2013-08-27 22:02:00,81.7,64.5,30.03,SSW,203,3.6,9.8,56,0.00,,,0.00,WUHU216HW,2013-08-28 03:02:00,
2013-08-27 22:07:00,81.5,64.3,30.03,SW,225,4.7,9.8,56,0.00,,,0.00,WUHU216HW,2013-08-28 03:07:00,
2013-08-27 22:12:00,81.4,64.1,30.03,WSW,248,4.5,5.4,56,0.00,,,0.00,WUHU216HW,2013-08-28 03:12:00,
2013-08-27 22:17:00,81.4,64.1,30.03,SW,225,6.5,6.9,56,0.00,,,0.00,WUHU216HW,2013-08-28 03:17:00,
2013-08-27 22:22:00,81.4,64.6,30.03,SSW,203,8.5,8.5,57,0.00,,,0.00,WUHU216HW,2013-08-28 03:22:00,
2013-08-27 22:27:00,81.2,64.4,30.03,SSW,203,6.9,8.5,57,0.00,,,0.00,WUHU216HW,2013-08-28 03:27:00,
2013-08-27 22:32:00,81.2,64.4,30.03,WSW,248,6.3,8.5,57,0.00,,,0.00,WUHU216HW,2013-08-28 03:32:00,
2013-08-27 22:37:00,81.0,64.3,30.03,SW,225,5.4,6.9,57,0.00,,,0.00,WUHU216HW,2013-08-28 03:37:00,
2013-08-27 22:42:00,81.0,64.8,30.03,West,270,3.6,6.3,58,0.00,,,0.00,WUHU216HW,2013-08-28 03:42:00,
2013-08-27 22:47:00,80.8,64.6,30.03,SW,225,4.7,5.6,58,0.00,,,0.00,WUHU216HW,2013-08-28 03:47:00,
2013-08-27 22:52:00,80.6,64.4,30.03,SSW,203,4.0,6.7,58,0.00,,,0.00,WUHU216HW,2013-08-28 03:52:00,
2013-08-27 22:57:00,80.5,64.8,30.03,SW,225,5.1,6.7,59,0.00,,,0.00,WUHU216HW,2013-08-28 03:57:00,
2013-08-27 23:01:00,80.5,64.8,30.03,SW,225,5.6,6.7,59,0.00,,,0.00,WUHU216HW,2013-08-28 04:01:00,
2013-08-27 23:02:00,80.5,64.8,30.03,SW,225,4.3,5.6,59,0.00,,,0.00,WUHU216HW,2013-08-28 04:02:00,
2013-08-27 23:07:00,80.3,65.2,30.03,SSW,203,3.8,6.3,60,0.00,,,0.00,WUHU216HW,2013-08-28 04:07:00,
2013-08-27 23:12:00,80.1,65.1,30.03,SSW,203,7.6,7.6,60,0.00,,,0.00,WUHU216HW,2013-08-28 04:12:00,
2013-08-27 23:17:00,79.9,64.9,30.03,SW,225,4.7,7.6,60,0.00,,,0.00,WUHU216HW,2013-08-28 04:17:00,
2013-08-27 23:22:00,79.9,64.9,30.03,SW,225,2.5,7.6,60,0.00,,,0.00,WUHU216HW,2013-08-28 04:22:00,
2013-08-27 23:27:00,79.7,65.2,30.03,SSW,203,7.6,7.6,61,0.00,,,0.00,WUHU216HW,2013-08-28 04:27:00,
2013-08-27 23:32:00,79.6,65.0,30.03,SW,225,4.7,7.6,61,0.00,,,0.00,WUHU216HW,2013-08-28 04:32:00,
2013-08-27 23:37:00,79.4,65.3,30.03,SSW,203,3.8,7.6,62,0.00,,,0.00,WUHU216HW,2013-08-28 04:37:00,
2013-08-27 23:42:00,79.2,65.1,30.03,SW,225,3.4,6.0,62,0.00,,,0.00,WUHU216HW,2013-08-28 04:42:00,
2013-08-27 23:47:00,79.0,65.3,30.03,SSW,203,6.0,6.0,63,0.00,,,0.00,WUHU216HW,2013-08-28 04:47:00,
2013-08-27 23:52:00,79.0,65.3,30.03,SW,225,6.0,6.0,63,0.00,,,0.00,WUHU216HW,2013-08-28 04:52:00,
2013-08-27 23:57:00,78.8,65.2,30.03,SW,225,5.8,6.9,63,0.00,,,0.00,WUHU216HW,2013-08-28 04:57:00,